[[{"header":{"parameterUnit":"m.s-1","parameterCategory":1,"la1":30.2991,"la2":30.254,"lo1":-89.0895,"lo2":-89.0444,"dy":0.0017,"dx":0.0017,"nx":28,"ny":28,"refTime":"2025-07-31T03:00:00:Z","depth":0,"parameterNumber":2,"parameterNumberName":"U-component_of_WINDS"},"data":[0,0,0,0,0,0,0,0,0,0,0,0,0,0,0,0,0,0,0,0,0,0,0,0,0,0,0,0,0,0,0,0,0,0,0,0,0,0,0,0,0,0,0,0,0,0,0,0,0,0,0,0,0,0,0,0,0,0,1.6384,1.6385,0,1.6484,1.6486,1.6487,1.6519,1.6519,1.6518,1.6518,1.6625,1.6628,1.6631,0,0,0,0,0,0,0,0,0,0,0,0,0,1.6222,1.6224,1.6384,1.6385,1.6386,1.6484,1.6486,1.6487,1.6519,1.6519,1.6518,1.6518,1.6623,1.6627,1.6631,0,0,0,0,0,0,0,0,0,0,0,0,0,1.6304,1.6225,1.6383,1.6414,1.6418,1.6484,1.6486,1.6487,1.6519,1.6519,1.6518,1.6517,1.6622,1.6627,1.6632,1.6676,0,0,1.6647,1.6649,0,0,0,0,0,0,0,0,1.6299,1.631,1.6408,1.6412,1.6416,1.6488,1.6468,1.6551,1.652,1.6481,1.6518,1.6517,1.658,1.6588,1.6609,1.6681,1.6686,1.6647,1.665,1.6652,1.6654,0,0,0,0,0,0,0,1.6294,1.6306,1.6424,1.641,1.6414,1.6423,1.6434,1.6484,1.6533,1.6484,1.6487,1.6498,1.6582,1.6604,1.6612,1.6687,1.6647,1.6652,1.6655,1.6656,1.68,1.6801,0,0,0,0,0,0,1.6282,1.6301,1.642,1.6427,1.6355,1.6427,1.6439,1.6466,1.6533,1.6542,1.6499,1.6499,1.6596,1.6606,1.6616,1.6671,1.6652,1.6657,1.666,1.6799,1.68,1.6801,0,0,0,0,0,0,1.6279,1.6293,1.6416,1.6365,1.6381,1.643,1.646,1.6468,1.649,1.6544,1.6553,1.6512,1.6596,1.6609,1.666,1.6675,1.6659,1.6664,1.6798,1.68,1.6801,1.6783,0,0,0,0,0,0,1.6274,1.6291,1.6308,1.6365,1.6384,1.6459,1.6461,1.6471,1.6498,1.65,1.6558,1.6567,1.6596,1.6653,1.6665,1.6682,1.6667,1.6797,1.6799,1.68,1.6782,1.6783,1.6784,0,0,0,0,0,1.6268,1.63,1.6309,1.6323,1.6405,1.6459,1.647,1.6502,1.6499,1.6517,1.6551,1.6566,1.6672,1.6658,1.6672,1.669,1.6796,1.6798,1.68,1.6782,1.6783,1.6784,0,0,0,0,0,0,1.6245,1.6308,1.6318,1.6369,1.6408,1.6465,1.6488,1.6502,1.6544,1.6544,1.6583,1.6596,1.6644,1.6673,1.6656,1.6736,1.6735,1.674,1.6716,1.6718,1.6718,1.6711,1.6672,0,0,0,0,0,1.6246,1.6283,1.6337,1.6377,1.6396,1.6438,1.6463,1.6484,1.6526,1.6544,1.6582,1.6623,1.6666,1.6694,1.6736,1.6787,1.68,1.6806,1.6807,1.6808,1.6811,1.684,1.6843,1.6808,1.6808,1.6808,0,0,1.6248,1.6287,1.6309,1.6373,1.6406,1.6444,1.6452,1.6493,1.6522,1.655,1.6601,1.663,1.6679,1.673,1.6755,1.6756,1.6824,1.681,1.681,1.6814,1.6842,1.6845,1.6848,1.6809,1.6809,1.6809,0,0,1.6271,1.6305,1.6341,1.6373,1.6423,1.6451,1.6459,1.6513,1.6533,1.6584,1.6606,1.6642,1.6715,1.6748,1.6775,1.681,1.6825,1.6823,1.6828,1.6855,1.6858,1.686,1.6872,1.6876,1.6827,1.6827,1.6827,0,1.6268,1.6326,1.6358,1.6397,1.6425,1.6451,1.6488,1.6518,1.6579,1.6598,1.6598,1.6689,1.6724,1.6783,1.6791,1.6812,1.6823,1.6817,1.6855,1.6858,1.6861,1.6872,1.6877,1.6826,1.6826,1.6826,1.6826,0,1.632,1.636,1.6383,1.6439,1.647,1.6508,1.6546,1.6573,1.6591,1.6619,1.6671,1.6714,1.6765,1.678,1.6799,1.6842,1.684,1.6847,1.6846,1.6863,1.6874,1.6879,1.6825,1.6825,1.6826,1.6826,0,0,1.6332,1.6404,1.6412,1.6438,1.6494,1.6526,1.6565,1.6613,1.6636,1.6677,1.6711,1.6771,1.6777,1.6807,1.683,1.6854,1.6878,1.6858,1.6859,1.6859,1.6927,1.6921,1.6926,1.6888,1.6889,1.689,1.6922,0,1.6362,1.6432,1.6461,1.6518,1.6555,1.658,1.6614,1.6652,1.6679,1.6716,1.6746,1.6788,1.6793,1.6811,1.6836,1.687,1.6892,1.6868,1.692,1.6922,1.6906,1.6932,1.6927,1.6955,1.6927,1.6928,1.6929,0,1.6406,1.6446,1.6506,1.6556,1.6573,1.6603,1.6649,1.6683,1.6727,1.6745,1.6778,1.6799,1.6842,1.6838,1.6898,1.688,1.6904,1.6923,1.6925,1.6931,1.6926,1.6938,1.6965,1.6969,1.6936,1.6936,1.6935,0,1.6408,1.6477,1.6521,1.6542,1.6602,1.6623,1.6649,1.6692,1.6719,1.676,1.6777,1.6823,1.6848,1.6883,1.6917,1.6911,1.6973,1.6972,1.6989,1.6988,1.7001,1.6999,1.7031,1.7016,1.7016,1.7016,1.7016,0,1.6438,1.6474,1.6522,1.655,1.659,1.6624,1.6663,1.6692,1.6729,1.6763,1.6788,1.6819,1.6861,1.6898,1.6924,1.6969,1.698,1.6996,1.7003,1.6994,1.6991,1.7009,1.7008,1.7017,1.7017,1.7017,1.7017,0,1.6447,1.6481,1.6531,1.6583,1.6597,1.6624,1.667,1.6697,1.6725,1.6767,1.6779,1.6824,1.6868,1.6904,1.6963,1.6981,1.7027,1.7035,1.7012,1.7015,1.703,1.7028,1.7074,1.7082,1.7062,1.7062,1.7062,0,1.6464,1.6491,1.6546,1.6569,1.6595,1.6633,1.666,1.6694,1.6722,1.6773,1.6795,1.684,1.6879,1.6948,1.6986,1.7031,1.704,1.7053,1.7047,1.7037,1.704,1.7037,1.704,1.7054,1.7054,1.7054,1.7054,0,1.6489,1.6505,1.6542,1.6585,1.6617,1.6653,1.669,1.6708,1.6749,1.6779,1.6824,1.6853,1.6912,1.6957,1.7006,1.7034,1.7051,1.7055,1.7062,1.7052,1.7037,1.7045,1.7013,1.7054,1.7054,1.7054,1.7054,1.7054,1.6503,1.6528,1.657,1.6611,1.6642,1.6675,1.6703,1.6734,1.6772,1.6821,1.684,1.6886,1.6929,1.6995,1.7023,1.706,1.7062,1.7071,1.7073,1.7075,1.7073,1.7032,1.7069,1.7069,1.7069,1.7069,1.7069,0,1.6529,1.6557,1.6594,1.6644,1.6676,1.6688,1.6729,1.6756,1.6795,1.6833,1.687,1.6921,1.6965,1.7005,1.7051,1.7073,1.7082,1.7083,1.7082,1.7088,1.7069,1.7059,1.7075,1.7075,1.7075,1.7075,1.7075,1.7075,1.6546,1.659,1.661,1.6668,1.6697,1.6741,1.6763,1.6794,1.6824,1.688,1.6916,1.6942,1.6981,1.7029,1.707,1.7081,1.7096,1.7096,1.7109,1.7091,1.709,1.7089,1.7079,1.7099,1.7099,1.7125,1.7125,1.7125]},{"header":{"parameterUnit":"m.s-1","parameterCategory":1,"la1":30.2991,"la2":30.254,"lo1":-89.0895,"lo2":-89.0444,"dy":0.0017,"dx":0.0017,"nx":28,"ny":28,"refTime":"2025-07-31T03:00:00:Z","depth":0,"parameterNumber":3,"parameterNumberName":"V-component_of_WINDS"},"data":[0,0,0,0,0,0,0,0,0,0,0,0,0,0,0,0,0,0,0,0,0,0,0,0,0,0,0,0,0,0,0,0,0,0,0,0,0,0,0,0,0,0,0,0,0,0,0,0,0,0,0,0,0,0,0,0,0,0,4.6677,4.6677,0,4.6661,4.6661,4.6661,4.6661,4.6661,4.6661,4.6661,4.6642,4.6641,4.664,0,0,0,0,0,0,0,0,0,0,0,0,0,4.6703,4.6702,4.6677,4.6677,4.6676,4.6661,4.6661,4.6661,4.6661,4.6661,4.6661,4.6661,4.6642,4.6641,4.664,0,0,0,0,0,0,0,0,0,0,0,0,0,4.669,4.6702,4.6677,4.6674,4.6674,4.6662,4.6661,4.6661,4.666,4.6661,4.6661,4.6661,4.6642,4.6641,4.664,4.6628,0,0,4.6637,4.6637,0,0,0,0,0,0,0,0,4.6691,4.6689,4.6675,4.6675,4.6674,4.6663,4.6663,4.665,4.666,4.6666,4.6661,4.6661,4.6648,4.6647,4.6643,4.6627,4.6626,4.6637,4.6636,4.6636,4.6636,0,0,0,0,0,0,0,4.6691,4.6689,4.6671,4.6675,4.6674,4.6673,4.6672,4.6661,4.6655,4.6665,4.6665,4.6663,4.6648,4.6644,4.6643,4.6626,4.6637,4.6636,4.6635,4.6635,4.6599,4.6598,0,0,0,0,0,0,4.6693,4.669,4.6671,4.667,4.6683,4.6673,4.6671,4.6666,4.6656,4.6654,4.6663,4.6663,4.6646,4.6644,4.6642,4.6627,4.6636,4.6635,4.6634,4.6599,4.6598,4.6598,0,0,0,0,0,0,4.6694,4.6692,4.6672,4.668,4.6678,4.6672,4.6667,4.6666,4.6662,4.6654,4.6653,4.666,4.6646,4.6644,4.6632,4.6626,4.6634,4.6633,4.6599,4.6599,4.6598,4.6596,0,0,0,0,0,0,4.6695,4.6692,4.6688,4.668,4.6677,4.6662,4.6667,4.6665,4.6661,4.6661,4.6651,4.665,4.6646,4.6633,4.6631,4.6625,4.6633,4.66,4.6599,4.6598,4.6597,4.6596,4.6595,0,0,0,0,0,4.6696,4.6687,4.6688,4.6685,4.6672,4.6662,4.666,4.6657,4.666,4.6656,4.6651,4.665,4.6627,4.6632,4.6629,4.6623,4.66,4.6599,4.6598,4.6597,4.6596,4.6595,0,0,0,0,0,0,4.6693,4.6686,4.6686,4.6675,4.667,4.6662,4.6656,4.6656,4.6648,4.6649,4.6644,4.6642,4.663,4.6625,4.6631,4.661,4.6614,4.6613,4.6614,4.6613,4.6612,4.6613,4.6632,0,0,0,0,0,4.6691,4.6684,4.6679,4.6669,4.6666,4.6662,4.6657,4.6656,4.6649,4.6646,4.664,4.6633,4.6624,4.6618,4.661,4.6596,4.6594,4.6591,4.659,4.6589,4.6588,4.658,4.6579,4.6596,4.6596,4.6596,0,0,4.6687,4.6682,4.6678,4.6669,4.6664,4.6656,4.666,4.6651,4.6646,4.6644,4.6633,4.6629,4.662,4.6607,4.6602,4.6603,4.6583,4.6588,4.6588,4.6587,4.6579,4.6578,4.6576,4.6595,4.6595,4.6595,0,0,4.6676,4.6672,4.6664,4.6659,4.6653,4.665,4.6648,4.6641,4.6638,4.6627,4.6626,4.6619,4.6604,4.6598,4.6592,4.658,4.6579,4.6577,4.6572,4.6565,4.6563,4.6562,4.6557,4.6556,4.6576,4.6576,4.6576,0,4.6671,4.6661,4.6659,4.6652,4.6647,4.6647,4.6639,4.6634,4.6624,4.6621,4.6623,4.6605,4.6599,4.6585,4.6582,4.6578,4.6575,4.6578,4.6564,4.6563,4.6561,4.6557,4.6555,4.6576,4.6576,4.6576,4.6576,0,4.6655,4.6648,4.6642,4.6635,4.6629,4.6621,4.6618,4.6613,4.6612,4.6608,4.6597,4.659,4.658,4.6577,4.6575,4.6563,4.6564,4.6565,4.6568,4.656,4.6555,4.6553,4.6575,4.6575,4.6576,4.6576,0,0,4.6641,4.6633,4.6631,4.6628,4.6621,4.6615,4.6606,4.6598,4.6593,4.6587,4.6579,4.6567,4.6568,4.6563,4.656,4.6554,4.6544,4.6556,4.6556,4.6554,4.6529,4.6528,4.6526,4.6544,4.6544,4.6543,4.653,0,4.6629,4.6615,4.6614,4.6601,4.6594,4.6595,4.6587,4.6582,4.6578,4.6571,4.6567,4.6559,4.6561,4.6558,4.6552,4.6547,4.6539,4.6548,4.6536,4.6535,4.6537,4.6524,4.6523,4.6511,4.6528,4.6528,4.6528,0,4.6612,4.6607,4.6594,4.6588,4.6585,4.6579,4.6571,4.6565,4.6558,4.6556,4.655,4.6549,4.654,4.6544,4.653,4.6536,4.6531,4.6528,4.6528,4.6526,4.6531,4.6521,4.6507,4.6505,4.6525,4.6525,4.6526,0,4.6603,4.6592,4.6583,4.658,4.6573,4.6568,4.6565,4.6559,4.6554,4.6547,4.6544,4.6536,4.6531,4.6524,4.652,4.6524,4.6507,4.6511,4.6504,4.6504,4.65,4.65,4.6484,4.6498,4.6498,4.6498,4.6498,0,4.6589,4.6581,4.6578,4.6573,4.6563,4.6562,4.6553,4.6549,4.6544,4.6537,4.6537,4.653,4.6526,4.6518,4.6515,4.6504,4.6502,4.6499,4.6499,4.6499,4.6499,4.6495,4.6496,4.6497,4.6497,4.6498,4.6498,0,4.6576,4.6575,4.6565,4.6559,4.6558,4.6551,4.6546,4.654,4.6538,4.6529,4.6527,4.6522,4.6513,4.6509,4.6498,4.6496,4.6483,4.6483,4.6486,4.6485,4.6479,4.6479,4.6458,4.6455,4.6472,4.6472,4.6472,0,4.6567,4.6561,4.6556,4.6552,4.6549,4.6542,4.6538,4.6536,4.6531,4.6524,4.6518,4.651,4.6503,4.6488,4.6483,4.6475,4.6474,4.6467,4.6472,4.6473,4.6473,4.6474,4.6473,4.6466,4.6466,4.6466,4.6466,0,4.6551,4.6551,4.6545,4.6539,4.6534,4.6529,4.6524,4.652,4.6517,4.6512,4.6504,4.6498,4.6487,4.6479,4.647,4.6465,4.6465,4.6464,4.6462,4.6462,4.6464,4.6463,4.6483,4.6465,4.6465,4.6465,4.6465,4.6465,4.654,4.6534,4.653,4.6523,4.652,4.6515,4.651,4.6507,4.65,4.6492,4.6491,4.6482,4.6476,4.6464,4.646,4.6452,4.6453,4.645,4.6449,4.6448,4.6448,4.6466,4.645,4.645,4.645,4.645,4.645,0,4.6523,4.6521,4.6515,4.6508,4.6503,4.6505,4.6499,4.6495,4.6487,4.6482,4.6476,4.6466,4.6458,4.6452,4.6444,4.6439,4.6438,4.6436,4.6436,4.6435,4.6447,4.645,4.6437,4.6437,4.6437,4.6437,4.6437,4.6437,4.6514,4.6505,4.6505,4.6494,4.6491,4.6483,4.648,4.6475,4.6471,4.6461,4.6455,4.6452,4.6446,4.6438,4.643,4.6428,4.6425,4.6423,4.6422,4.6433,4.6434,4.6436,4.6438,4.6422,4.6422,4.641,4.641,4.641]}]]